Location: Zapote
(9.9191°N, 84.0597°W)
Time: 04:31:06
(UTC-06:00)

Envisat - Pass Details

Date: 02 February 2021
Orbit: 764 x 766 km, 98.1° (Epoch: 09 March)

Event Time Altitude Azimuth Distance (km) Brightness Sun altitude
Rises 05:26:35 0° 0° (N) 3,218 6.1 -8.4°
Reaches altitude 10° 05:28:58 10° 354° (N) 2,292 5.3 -7.8°
Maximum altitude 05:33:44 43° 283° (WNW) 1,059 3.3 -6.7°
Drops below altitude 10° 05:38:30 10° 212° (SSW) 2,293 5.3 -5.5°
Sets 05:40:54 0° 206° (SSW) 3,219 6.1 -5.0°
